User: anonymous   Login
Location: Albany
(35.0000°S, 118.0000°E)
Time: 03:29:29
(UTC-05:00)
Language:

Cosmos 2227 Rocket - Orbit

View from above orbital plane
View from above orbital plane
View from above satellite
View from above satellite

Ground track
Ground track

The orbit data is extracted from the following two-line orbital elements,

1 22285U 92093B   14351.23255626 -.00000272  00000-0 -11605-3 0  4766
2 22285 071.0227 327.3677 0001977 053.1459 306.9845 14.14944059133391
Epoch (UTC): 17 December 2014 05:34:52
Eccentricity: 0.0001977
inclination: 71.0227°
perigee height: 841 km
apogee height: 844 km
right ascension of ascending node: 327.3677°
argument of perigee: 53.1459°
revolutions per day: 14.14944059
mean anomaly at epoch: 306.9845°
orbit number at epoch: 13339

The dashed part of the orbit path shows where the satellite is in the earth's shadow,  

DLR